DW4604 Weather Reports


Display with metric or nautical units.
time (UTC)temp
F
wind
direction
speed
MPH
gust
MPH
rain 1hr
in
rain 24hr
in
rain mn
in
humidity
%
barometer
mb
20170823172503 64 304 1.0 4.0 0.00 0.01 0.01 60 1017.2
20170823172003 64 314 1.0 5.0 0.00 0.01 0.01 59 1017.2
20170823171503 64 312 0.0 5.0 0.00 0.01 0.01 58 1017.2
20170823171003 65 312 1.0 5.0 0.00 0.01 0.01 59 1017.2
20170823170503 65 312 2.0 6.0 0.00 0.01 0.01 57 1017.2
20170823170003 65 313 2.0 6.0 0.00 0.01 0.01 55 1017.1
20170823165503 66 318 2.0 6.0 0.00 0.01 0.01 56 1017.2
20170823165003 66 310 1.0 6.0 0.00 0.01 0.01 55 1017.2
20170823164503 67 306 1.0 5.0 0.00 0.01 0.01 54 1017.1
20170823164003 67 305 1.0 7.0 0.00 0.01 0.01 54 1017.0
20170823163503 67 297 1.0 7.0 0.00 0.01 0.01 54 1017.0
20170823163003 67 311 1.0 5.0 0.00 0.01 0.01 53 1017.0
20170823162503 68 307 1.0 5.0 0.00 0.01 0.01 53 1017.0
20170823162003 68 306 2.0 5.0 0.00 0.01 0.01 54 1017.0
20170823161503 68 304 1.0 4.0 0.00 0.01 0.01 54 1017.0
20170823161003 67 306 2.0 11.0 0.00 0.01 0.01 53 1016.9
20170823160503 67 305 2.0 11.0 0.00 0.01 0.01 52 1016.8
20170823160003 67 297 1.0 5.0 0.00 0.01 0.01 54 1016.9
20170823155503 67 276 2.0 10.0 0.00 0.01 0.01 54 1016.9
20170823155003 67 262 2.0 10.0 0.00 0.01 0.01 53 1017.0
20170823154503 68 282 2.0 10.0 0.00 0.01 0.01 53 1017.0
20170823154003 68 309 3.0 10.0 0.00 0.01 0.01 55 1017.0
20170823153503 67 307 3.0 10.0 0.00 0.01 0.01 54 1017.0
20170823153003 67 310 3.0 9.0 0.00 0.01 0.01 54 1017.1
20170823152503 66 312 3.0 9.0 0.00 0.01 0.01 57 1017.0
20170823152003 66 314 2.0 6.0 0.00 0.01 0.01 56 1017.1
20170823151503 66 308 2.0 8.0 0.00 0.01 0.01 56 1017.1
20170823151003 66 311 3.0 8.0 0.00 0.01 0.01 55 1017.1
20170823150503 67 317 5.0 10.0 0.00 0.01 0.01 56 1017.2
20170823150003 67 319 3.0 11.0 0.00 0.01 0.01 56 1017.1
20170823145503 66 318 2.0 11.0 0.00 0.02 0.01 56 1017.1
20170823145003 65 319 3.0 10.0 0.00 0.02 0.01 56 1017.2
20170823144503 66 320 4.0 10.0 0.00 0.02 0.01 57 1017.2
20170823144004 66 323 2.0 9.0 0.00 0.02 0.01 57 1017.2
20170823143503 66 321 3.0 9.0 0.00 0.02 0.01 57 1017.2
20170823143003 66 296 3.0 11.0 0.00 0.02 0.01 56 1017.3
20170823142505 67 275 2.0 11.0 0.00 0.02 0.01 57 1017.3
20170823142004 67 322 1.0 7.0 0.00 0.02 0.01 56 1017.3
20170823141504 66 315 2.0 10.0 0.00 0.02 0.01 59 1017.3
20170823141004 66 285 3.0 10.0 0.00 0.02 0.01 59 1017.3
20170823140503 66 288 3.0 10.0 0.00 0.02 0.01 61 1017.2
20170823140004 65 319 3.0 8.0 0.00 0.02 0.01 62 1017.3
20170823135504 64 321 3.0 8.0 0.00 0.02 0.01 63 1017.3
20170823135004 64 315 2.0 10.0 0.00 0.02 0.01 65 1017.3
20170823134504 64 317 3.0 10.0 0.00 0.02 0.01 64 1017.3
20170823134004 64 319 2.0 7.0 0.00 0.02 0.01 65 1017.3
20170823133503 65 315 2.0 7.0 0.00 0.02 0.01 65 1017.3
20170823133003 64 312 2.0 7.0 0.00 0.02 0.01 64 1017.4
20170823132503 64 315 2.0 6.0 0.00 0.02 0.01 65 1017.4
20170823132003 64 310 3.0 9.0 0.00 0.02 0.01 65 1017.4
20170823131504 64 311 3.0 9.0 0.00 0.02 0.01 64 1017.6
20170823131003 64 317 2.0 6.0 0.00 0.02 0.01 65 1017.6
20170823130504 64 315 2.0 7.0 0.00 0.02 0.01 67 1017.6
20170823130004 63 312 2.0 9.0 0.00 0.02 0.01 67 1017.6
20170823125504 63 305 2.0 9.0 0.00 0.02 0.01 67 1017.7
20170823125004 63 301 2.0 7.0 0.00 0.02 0.01 68 1017.7
20170823124505 63 306 2.0 7.0 0.00 0.02 0.01 69 1017.8
20170823124004 62 305 1.0 6.0 0.00 0.02 0.01 70 1017.8
20170823123504 62 289 1.0 5.0 0.00 0.02 0.01 71 1017.8
20170823123004 62 263 1.0 5.0 0.00 0.02 0.01 72 1017.8
20170823122504 62 270 1.0 5.0 0.00 0.02 0.01 72 1017.9
20170823122004 62 298 1.0 5.0 0.00 0.02 0.01 73 1017.9
20170823121504 61 307 1.0 5.0 0.00 0.02 0.01 75 1018.0
20170823121004 61 315 1.0 8.0 0.00 0.02 0.01 78 1018.0
20170823120504 61 316 2.0 8.0 0.00 0.02 0.01 79 1018.1
20170823120004 61 316 3.0 8.0 0.00 0.02 0.01 78 1018.2
20170823115504 61 314 3.0 13.0 0.00 0.02 0.01 77 1018.2
20170823115004 61 311 3.0 13.0 0.00 0.02 0.01 77 1018.2
20170823114504 61 313 3.0 9.0 0.00 0.02 0.01 76 1018.2
20170823114004 61 290 2.0 9.0 0.00 0.02 0.01 76 1018.2
20170823113504 61 259 2.0 10.0 0.00 0.02 0.01 77 1018.1
20170823113004 61 281 3.0 10.0 0.00 0.02 0.01 77 1018.2
20170823112504 61 303 4.0 10.0 0.00 0.02 0.01 77 1018.2
20170823112004 62 291 3.0 10.0 0.00 0.02 0.01 75 1018.1
20170823111504 63 280 2.0 8.0 0.00 0.02 0.01 72 1018.1
20170823111005 63 253 2.0 10.0 0.00 0.02 0.01 74 1018.1
20170823110504 62 259 3.0 10.0 0.00 0.02 0.01 74 1018.1
20170823110004 62 283 3.0 10.0 0.00 0.02 0.01 74 1018.1
20170823105504 63 299 3.0 10.0 0.00 0.02 0.01 72 1018.1
20170823105004 63 284 4.0 10.0 0.00 0.02 0.01 71 1018.1
20170823104504 63 273 3.0 10.0 0.00 0.02 0.01 72 1018.2
20170823104004 63 288 3.0 8.0 0.00 0.02 0.01 72 1018.1
20170823103504 63 256 3.0 11.0 0.00 0.02 0.01 74 1018.1
20170823103004 62 244 3.0 11.0 0.00 0.02 0.01 78 1018.1
20170823102504 62 261 2.0 7.0 0.00 0.02 0.01 77 1018.1
20170823102004 62 272 2.0 7.0 0.00 0.02 0.01 76 1018.1
20170823101504 62 278 2.0 9.0 0.00 0.02 0.01 75 1018.1
20170823101004 62 283 3.0 9.0 0.00 0.02 0.01 77 1018.2
20170823100504 61 288 3.0 9.0 0.00 0.02 0.01 78 1018.1
20170823100005 61 270 2.0 9.0 0.00 0.02 0.01 77 1018.2
20170823095504 61 270 1.0 8.0 0.00 0.02 0.01 77 1018.1
20170823095004 61 282 2.0 9.0 0.00 0.02 0.01 76 1018.1
20170823094505 62 254 3.0 9.0 0.00 0.02 0.01 75 1018.0
20170823094004 62 243 3.0 8.0 0.00 0.02 0.01 75 1018.0
20170823093505 62 247 3.0 9.0 0.00 0.02 0.01 76 1018.0
20170823093004 61 268 2.0 9.0 0.00 0.02 0.01 77 1018.0
20170823092507 61 295 2.0 7.0 0.00 0.02 0.01 78 1018.1
20170823092006 60 309 2.0 11.0 0.00 0.02 0.01 77 1018.1
20170823091511 60 292 3.0 11.0 0.00 0.02 0.01 77 1018.1
20170823091004 61 277 2.0 10.0 0.00 0.02 0.01 76 1018.1
20170823090504 62 300 2.0 8.0 0.00 0.02 0.01 75 1018.1
20170823090004 62 285 1.0 7.0 0.00 0.02 0.01 75 1018.1
20170823085504 62 303 2.0 8.0 0.00 0.02 0.01 75 1018.0
20170823085004 61 315 3.0 8.0 0.00 0.02 0.01 75 1018.1
20170823084506 61 315 2.0 7.0 0.00 0.02 0.01 75 1018.1
20170823084004 61 317 3.0 10.0 0.00 0.02 0.01 76 1018.1
20170823083505 61 316 3.0 10.0 0.00 0.02 0.01 76 1018.1
20170823083005 60 314 2.0 6.0 0.00 0.02 0.01 78 1018.1
20170823082505 60 288 2.0 7.0 0.00 0.02 0.01 76 1018.1
20170823082005 61 277 2.0 7.0 0.00 0.02 0.01 76 1018.0
20170823081505 61 303 2.0 6.0 0.00 0.02 0.01 76 1018.0
20170823081005 60 311 1.0 6.0 0.00 0.02 0.01 78 1018.0
20170823080505 60 305 1.0 5.0 0.00 0.02 0.01 79 1018.0
20170823080005 59 306 2.0 7.0 0.00 0.02 0.01 80 1018.0
20170823075505 59 308 2.0 7.0 0.00 0.02 0.01 79 1018.0
20170823075004 59 305 2.0 6.0 0.00 0.02 0.01 79 1018.0
20170823074504 59 314 2.0 6.0 0.00 0.02 0.01 81 1017.9
20170823074004 58 317 2.0 6.0 0.00 0.02 0.01 83 1018.0
20170823073504 57 310 2.0 7.0 0.00 0.02 0.01 83 1018.0
20170823073005 57 307 2.0 9.0 0.00 0.02 0.01 84 1017.9
20170823072505 57 312 3.0 9.0 0.00 0.02 0.01 83 1018.0
20170823072005 57 317 3.0 7.0 0.00 0.02 0.01 84 1017.9
20170823071505 57 314 3.0 7.0 0.00 0.02 0.01 84 1017.9
20170823071005 57 306 2.0 7.0 0.00 0.02 0.01 84 1017.9
20170823070505 57 302 2.0 7.0 0.00 0.02 0.01 83 1017.9
20170823070005 57 303 2.0 6.0 0.00 0.02 0.01 83 1017.9
20170823065505 57 313 2.0 6.0 0.00 0.02 0.01 84 1017.8
20170823065004 57 316 3.0 9.0 0.00 0.02 0.01 84 1017.8
20170823064504 57 314 2.0 9.0 0.00 0.02 0.01 83 1017.8
20170823064005 57 308 1.0 4.0 0.00 0.02 0.01 83 1017.8
20170823063505 58 308 2.0 5.0 0.00 0.02 0.01 83 1017.8
20170823063005 58 309 2.0 7.0 0.00 0.02 0.01 83 1017.7
20170823062505 58 313 2.0 7.0 0.00 0.02 0.01 82 1017.6
20170823062005 58 322 1.0 5.0 0.00 0.02 0.01 82 1017.6
20170823061505 58 322 1.0 4.0 0.00 0.02 0.01 82 1017.6
20170823061005 58 311 1.0 4.0 0.00 0.02 0.01 83 1017.6
20170823060505 57 308 1.0 4.0 0.00 0.02 0.01 84 1017.6
20170823060005 56 316 1.0 6.0 0.00 0.02 0.01 84 1017.5
20170823055504 56 316 1.0 6.0 0.00 0.02 0.01 85 1017.5
20170823055005 56 307 1.0 6.0 0.00 0.02 0.01 85 1017.5
20170823054505 55 285 1.0 6.0 0.00 0.02 0.01 86 1017.4
20170823054005 55 269 1.0 6.0 0.00 0.02 0.01 86 1017.5
20170823053505 55 267 1.0 4.0 0.00 0.02 0.01 87 1017.5
20170823053004 54 272 1.0 4.0 0.00 0.02 0.01 88 1017.6
20170823052505 54 265 0.0 3.0 0.00 0.02 0.01 89 1017.5
20170823052004 54 245 0.0 3.0 0.00 0.02 0.01 89 1017.5
20170823051505 53 233 0.0 5.0 0.00 0.02 0.01 90 1017.5
20170823051005 53 286 1.0 5.0 0.00 0.02 0.01 90 1017.5
20170823050505 53 316 0.0 4.0 0.00 0.02 0.01 90 1017.6
20170823050005 53 287 0.0 2.0 0.00 0.02 0.01 90 1017.6
20170823045505 53 241 0.0 3.0 0.00 0.02 0.01 90 1017.5
20170823045005 53 234 0.0 3.0 0.00 0.02 0.01 91 1017.5
20170823044505 53 232 0.0 2.0 0.00 0.02 0.01 91 1017.6
20170823044005 53 241 0.0 2.0 0.00 0.02 0.01 90 1017.6
20170823043505 53 244 0.0 2.0 0.00 0.02 0.01 91 1017.5
20170823043006 53 234 0.0 3.0 0.00 0.02 0.01 91 1017.5
20170823042506 52 239 0.0 3.0 0.00 0.02 0.01 91 1017.5
20170823042006 52 245 0.0 2.0 0.00 0.02 0.01 91 1017.5
20170823041505 52 249 0.0 2.0 0.00 0.02 0.01 91 1017.4
20170823041005 52 270 0.0 2.0 0.00 0.02 0.01 91 1017.4
20170823040505 52 318 0.0 2.0 0.00 0.02 0.01 91 1017.4
20170823040005 52 246 0.0 1.0 0.00 0.02 0.01 91 1017.4
20170823035505 52 236 0.0 1.0 0.00 0.02 0.01 90 1017.3
20170823035005 52 215 0.0 1.0 0.00 0.02 0.01 90 1017.3
20170823034505 52 249 0.0 1.0 0.00 0.02 0.01 90 1017.2
20170823034005 52 309 0.0 2.0 0.00 0.02 0.01 90 1017.2
20170823033506 52 277 0.0 3.0 0.00 0.02 0.01 90 1017.1
20170823033006 52 278 0.0 3.0 0.00 0.02 0.01 90 1017.1
20170823032505 52 311 0.0 3.0 0.00 0.02 0.01 89 1017.0
20170823032005 53 315 0.0 3.0 0.00 0.02 0.01 89 1017.0
20170823031505 53 309 0.0 3.0 0.00 0.02 0.01 89 1017.0
20170823031006 53 313 0.0 2.0 0.00 0.02 0.01 89 1016.9
20170823030505 53 320 0.0 2.0 0.00 0.02 0.01 89 1016.9
20170823030006 53 324 0.0 4.0 0.00 0.02 0.01 89 1016.9
20170823025505 53 317 1.0 5.0 0.00 0.02 0.01 89 1016.9
20170823025005 53 312 1.0 5.0 0.00 0.02 0.01 89 1016.9
20170823024505 53 311 0.0 3.0 0.00 0.02 0.01 89 1016.8
20170823024006 53 316 0.0 3.0 0.00 0.02 0.01 89 1016.8
20170823023506 53 318 0.0 3.0 0.00 0.02 0.01 89 1016.8
20170823023006 53 310 0.0 4.0 0.00 0.02 0.01 89 1016.8
20170823022506 53 306 0.0 4.0 0.00 0.02 0.01 89 1016.8
20170823022005 53 316 0.0 3.0 0.00 0.02 0.01 89 1016.7
20170823021505 53 316 1.0 3.0 0.00 0.02 0.01 89 1016.7
20170823021005 53 310 1.0 4.0 0.00 0.02 0.01 89 1016.8
20170823020506 53 313 1.0 4.0 0.00 0.02 0.01 89 1016.8
20170823020006 53 316 1.0 3.0 0.00 0.02 0.01 89 1016.8
20170823015506 53 311 1.0 4.0 0.00 0.02 0.01 90 1016.8
20170823015006 53 306 0.0 4.0 0.00 0.02 0.01 90 1016.8
20170823014506 53 303 0.0 2.0 0.00 0.02 0.01 91 1016.8
20170823014006 53 243 0.0 1.0 0.00 0.02 0.01 91 1016.8
20170823013505 53 243 0.0 1.0 0.00 0.02 0.01 91 1016.8
20170823013006 53 0 0.0 0.0 0.00 0.02 0.01 91 1016.8
20170823012506 53 0 0.0 0.0 0.00 0.02 0.01 91 1016.9
20170823012006 53 243 0.0 1.0 0.00 0.02 0.01 91 1016.8
20170823011506 53 243 0.0 1.0 0.00 0.02 0.01 91 1016.8
20170823011006 53 239 0.0 1.0 0.00 0.02 0.01 90 1016.8
20170823010506 53 245 0.0 1.0 0.00 0.02 0.01 90 1016.8
20170823010006 53 313 0.0 3.0 0.00 0.02 0.01 90 1016.8
20170823005505 53 309 0.0 3.0 0.00 0.02 0.01 89 1016.8
20170823005006 53 307 0.0 3.0 0.00 0.02 0.01 90 1016.9
20170823004506 53 312 0.0 2.0 0.00 0.02 0.01 90 1016.8
20170823004006 53 284 0.0 1.0 0.00 0.02 0.01 90 1016.9
20170823003506 53 284 0.0 1.0 0.00 0.02 0.01 91 1016.9
20170823003006 52 0 0.0 0.0 0.00 0.02 0.01 91 1016.9
20170823002506 52 299 0.0 1.0 0.00 0.02 0.01 91 1016.9
20170823002006 52 299 0.0 1.0 0.00 0.02 0.01 91 1016.9
20170823001505 52 0 0.0 0.0 0.00 0.02 0.01 91 1016.9
20170823001006 52 0 0.0 0.0 0.00 0.02 0.01 91 1016.9
20170823000508 52 0 0.0 0.0 0.00 0.02 0.01 91 1016.9
20170823000006 52 0 0.0 0.0 0.00 0.02 0.01 91 1016.8
20170822235506 52 0 0.0 0.0 0.00 0.02 0.01 91 1016.9
20170822235006 52 0 0.0 0.0 0.01 0.02 0.01 91 1016.9
20170822234506 52 0 0.0 0.0 0.01 0.02 0.01 91 1016.9
20170822234006 52 0 0.0 0.0 0.01 0.02 0.01 91 1017.0
20170822233506 52 0 0.0 0.0 0.01 0.02 0.01 91 1017.0
20170822233006 52 0 0.0 0.0 0.01 0.02 0.01 91 1017.0
20170822232506 52 0 0.0 0.0 0.01 0.02 0.01 91 1017.1
20170822232006 52 0 0.0 0.0 0.01 0.02 0.01 91 1017.0
20170822231506 52 0 0.0 0.0 0.01 0.02 0.01 91 1017.1
20170822231006 52 0 0.0 0.0 0.01 0.02 0.01 91 1017.1
20170822230506 52 0 0.0 0.0 0.01 0.02 0.01 90 1017.1
20170822230007 52 0 0.0 0.0 0.01 0.02 0.01 90 1017.2
20170822225507 52 0 0.0 0.0 0.01 0.02 0.01 90 1017.2
20170822225006 52 0 0.0 0.0 0.00 0.01 0.00 90 1017.2
20170822224506 51 0 0.0 0.0 0.00 0.01 0.00 90 1017.3
20170822224006 51 0 0.0 0.0 0.00 0.01 0.00 90 1017.2
20170822223506 51 0 0.0 0.0 0.00 0.01 0.00 90 1017.3
20170822223006 51 0 0.0 0.0 0.00 0.01 0.00 90 1017.2
20170822222506 51 0 0.0 0.0 0.00 0.01 0.00 90 1017.2
20170822222007 51 0 0.0 0.0 0.00 0.01 0.00 91 1017.2
20170822221507 51 0 0.0 0.0 0.00 0.01 0.00 91 1017.2
20170822221007 51 0 0.0 0.0 0.00 0.01 0.00 91 1017.2
20170822220506 51 0 0.0 0.0 0.00 0.01 0.00 91 1017.3
20170822220007 51 0 0.0 0.0 0.00 0.01 0.00 90 1017.2
20170822215507 51 0 0.0 0.0 0.00 0.01 0.01 90 1017.2
20170822215006 51 0 0.0 0.0 0.00 0.01 0.01 91 1017.3
20170822214506 51 0 0.0 0.0 0.00 0.01 0.01 90 1017.3
20170822214006 51 0 0.0 0.0 0.00 0.01 0.01 90 1017.3
20170822213506 51 0 0.0 0.0 0.00 0.01 0.01 89 1017.4
20170822213007 51 0 0.0 0.0 0.00 0.01 0.01 89 1017.4
20170822212507 51 313 0.0 2.0 0.00 0.01 0.01 89 1017.4
20170822212007 51 311 0.0 2.0 0.00 0.01 0.01 89 1017.3
20170822211507 51 309 0.0 2.0 0.00 0.01 0.01 89 1017.3
20170822211006 51 306 0.0 3.0 0.00 0.01 0.01 91 1017.3
20170822210506 51 304 0.0 3.0 0.00 0.01 0.01 93 1017.3
20170822210007 51 0 0.0 0.0 0.00 0.01 0.01 94 1017.4
20170822205507 51 0 0.0 0.0 0.00 0.01 0.01 95 1017.4
20170822205007 51 0 0.0 0.0 0.00 0.01 0.01 95 1017.3
20170822204507 51 0 0.0 0.0 0.00 0.01 0.01 94 1017.3
20170822204007 51 0 0.0 0.0 0.00 0.01 0.01 94 1017.3
20170822203507 51 0 0.0 0.0 0.00 0.01 0.01 94 1017.3
20170822203006 51 0 0.0 0.0 0.00 0.01 0.01 94 1017.4
20170822202506 51 0 0.0 0.0 0.00 0.01 0.01 94 1017.3
20170822202007 51 0 0.0 0.0 0.00 0.01 0.01 93 1017.3
20170822201507 51 0 0.0 0.0 0.00 0.01 0.01 93 1017.3
20170822201007 52 0 0.0 0.0 0.00 0.01 0.01 93 1017.4
20170822200507 52 0 0.0 0.0 0.00 0.01 0.01 93 1017.4
20170822200007 52 0 0.0 0.0 0.00 0.01 0.01 93 1017.4
20170822195507 52 0 0.0 0.0 0.00 0.01 0.01 93 1017.4
20170822195007 52 0 0.0 0.0 0.00 0.01 0.01 93 1017.5
20170822194507 52 241 0.0 1.0 0.00 0.01 0.01 93 1017.5
20170822194007 53 241 0.0 1.0 0.00 0.01 0.01 93 1017.5
20170822193507 53 0 0.0 0.0 0.00 0.01 0.01 92 1017.4
20170822193007 53 0 0.0 0.0 0.00 0.01 0.01 92 1017.5
20170822192507 53 0 0.0 0.0 0.00 0.01 0.01 92 1017.4
20170822192007 53 0 0.0 0.0 0.00 0.01 0.01 91 1017.4
20170822191507 53 0 0.0 0.0 0.00 0.01 0.01 91 1017.4
20170822191007 53 0 0.0 0.0 0.00 0.01 0.01 91 1017.3
20170822190507 54 0 0.0 0.0 0.00 0.01 0.01 90 1017.3
20170822190007 54 240 0.0 1.0 0.00 0.01 0.01 90 1017.3
20170822185507 54 302 0.0 2.0 0.00 0.01 0.01 90 1017.2
20170822185007 54 312 0.0 2.0 0.00 0.01 0.01 90 1017.2
20170822184507 54 304 0.0 1.0 0.00 0.01 0.01 89 1017.1
20170822184008 54 265 0.0 1.0 0.00 0.01 0.01 89 1017.1
20170822183507 54 249 0.0 1.0 0.00 0.01 0.01 89 1017.1
20170822183007 54 236 0.0 1.0 0.00 0.01 0.01 89 1017.0
20170822182507 55 0 0.0 0.0 0.00 0.01 0.01 89 1017.0
20170822182007 55 0 0.0 0.0 0.00 0.01 0.01 88 1016.9
20170822181508 55 0 0.0 0.0 0.00 0.01 0.01 87 1016.9
20170822181007 56 236 0.0 1.0 0.00 0.01 0.01 86 1016.8
20170822180507 56 236 0.0 1.0 0.00 0.01 0.01 86 1016.8
20170822180007 56 0 0.0 0.0 0.00 0.01 0.01 85 1016.9
20170822175507 57 0 0.0 0.0 0.00 0.01 0.01 84 1016.8
20170822175008 57 236 0.0 1.0 0.00 0.01 0.01 83 1016.8
20170822174507 58 236 0.0 1.0 0.00 0.01 0.01 82 1016.7
20170822174007 58 233 0.0 2.0 0.00 0.01 0.01 82 1016.8
20170822173507 59 233 0.0 2.0 0.00 0.01 0.01 81 1016.8
20170822173008 59 235 0.0 2.0 0.00 0.01 0.01 80 1016.8